Overview Statistics Trail Chart Weather Telemetry Raw packets
 

This is the latest recevied weather packets stored in our database for station/object KC9DRE. If no packets are shown the sender has not sent any weather packets the latest 10 day(s).

<< 10 11 12 13 14 15 16 >>
Time Temp. Humidity Pressure Rain* Wind** Luminosity Snow
1777824307 16.11° C 37% 1020.5 hPa 0 mm - 816 W/m² -
1777824003 16.11° C 37% 1020.6 hPa 0 mm - 806 W/m² -
1777823699 16.67° C 38% 1020.5 hPa 0 mm - 798 W/m² -
1777823396 16.11° C 37% 1020.2 hPa 0 mm - 787 W/m² -
1777823094 16.11° C 36% 1020.6 hPa 0 mm - 780 W/m² -
1777822792 16.11° C 36% 1020.7 hPa 0 mm - 768 W/m² -
1777822489 16.11° C 36% 1020.5 hPa 0 mm - 761 W/m² -
1777822187 16.11° C 37% 1020.8 hPa 0 mm - 747 W/m² -
1777821884 15.56° C 36% 1020.9 hPa 0 mm - 736 W/m² -
1777821593 15.56° C 40% 1020.8 hPa 0 mm - 725 W/m² -
1777821279 15.56° C 42% 1020.8 hPa 0 mm - 712 W/m² -
1777820976 15° C 42% 1021.1 hPa 0 mm - 698 W/m² -
1777820673 15.56° C 40% 1021 hPa 0 mm - 683 W/m² -
1777820368 15.56° C 42% 1020.9 hPa 0 mm - 669 W/m² -
1777820066 15° C 44% 1020.8 hPa 0 mm - 654 W/m² -
1777819763 15° C 44% 1021 hPa 0 mm - 639 W/m² -
1777819461 14.44° C 45% 1020.9 hPa 0 mm - 623 W/m² -
1777819159 14.44° C 44% 1020.9 hPa 0 mm - 608 W/m² -
1777818856 14.44° C 44% 1020.7 hPa 0 mm - 591 W/m² -
1777818551 14.44° C 50% 1021 hPa 0 mm - 580 W/m² -
1777818249 15° C 45% 1020.7 hPa 0 mm - 564 W/m² -
1777817945 14.44° C 48% 1020.8 hPa 0 mm - 546 W/m² -
1777817643 13.89° C 48% 1020.7 hPa 0 mm - 529 W/m² -
1777817339 13.89° C 51% 1020.8 hPa 0 mm - 515 W/m² -
1777817036 13.33° C 49% 1020.9 hPa 0 mm - 501 W/m² -

* Rain latest hour (hover to see other rain measurements)
** Current wind speed in m/s (hover to see current wind gust speed)